This demonstration page uses our WeatherBlox Daily Observations layout. Learn more.

Left ArrowRight Arrow

40.92945, -100.16068

Hourly Observations for February 18, 2018

Temp ( °F °C ) Dew Point ( °F °C ) Humidity (%) Winds ( mph kmh ) Pressure ( in mb ) Visibility ( mi km ) Precip ( " mm )
12:15 am 00:15 Clear 37 2.6 20 -6.4 52 52 SE 13 20 29.94 1014 10 16.0934 0 0
12:35 am 00:35 Clear 36 2.3 21 -6.3 53 53 SSE 15 24 29.97 1015 10 16.0934 0 0
12:55 am 00:55 Clear 37 2.6 20 -6.4 52 52 SSE 17 28 29.91 1013 10 16.0934 0 0
1:15 am 01:15 Clear 38 3.3 20 -6.7 48 48 S 23 37 29.88 1012 10 16.0934 0 0
1:35 am 01:35 Clear 39 3.9 20 -6.8 46 46 S 26 43 29.88 1012 10 16.0934 0 0
1:55 am 01:55 Clear 39 4 20 -6.8 46 46 S 26 43 29.85 1011 10 16.0934 0 0
2:15 am 02:15 Clear 39 3.7 20 -6.9 46 46 S 28 44 29.85 1011 10 16.0934 0 0
2:35 am 02:35 Clear 39 3.7 19 -7 46 46 S 29 46 29.83 1010 10 16.0934 0 0
2:55 am 02:55 Clear 38 3.6 19 -7.1 46 46 S 29 46 29.83 1010 10 16.0934 0 0
3:15 am 03:15 Clear 38 3.3 19 -7 47 47 S 26 43 29.8 1009 10 16.0934 0 0
3:35 am 03:35 Clear 39 3.8 19 -7.2 45 45 S 28 44 29.8 1009 10 16.0934 0 0
3:55 am 03:55 Clear 39 3.7 19 -7 46 46 S 28 44 29.77 1008 10 16.0934 0 0
4:15 am 04:15 Clear 38 3.5 19 -7 47 47 S 26 43 29.77 1008 10 16.0934 0 0
4:35 am 04:35 Clear 38 3.6 20 -6.7 47 47 S 26 43 29.77 1008 10 16.0934 0 0
4:55 am 04:55 Clear 39 3.7 20 -6.6 47 47 S 29 46 29.77 1008 10 16.0934 0 0
5:15 am 05:15 Clear 39 3.7 21 -6.1 49 49 S 18 30 29.77 1008 10 16.0934 0 0
5:35 am 05:35 Clear 38 3.6 21 -5.9 50 50 S 21 33 29.77 1008 10 16.0934 0 0
5:55 am 05:55 Clear 39 4.1 22 -5.5 50 50 S 20 31 29.71 1006 10 16.0934 0 0
6:15 am 06:15 Clear 40 4.3 22 -5.3 50 50 S 20 31 29.74 1007 10 16.0934 0 0
6:35 am 06:35 Clear 39 4.1 23 -5 52 52 S 21 33 29.71 1006 10 16.0934 0 0
6:55 am 06:55 Clear 39 4.1 23 -5.1 52 52 S 22 35 29.68 1005 10 16.0934 0 0
7:15 am 07:15 Clear 40 4.4 23 -4.9 51 51 S 18 30 29.71 1006 10 16.0934 0 0
7:35 am 07:35 Sunny 39 4 24 -4.5 54 54 S 16 26 29.71 1006 10 16.0934 0 0
7:55 am 07:55 Sunny 39 4 25 -4.1 56 56 S 18 30 29.68 1005 10 16.0934 0 0
8:15 am 08:15 Sunny 39 4.1 25 -3.8 57 57 S 20 31 29.68 1005 10 16.0934 0 0
8:35 am 08:35 Sunny 40 4.5 26 -3.4 57 57 S 17 28 29.68 1005 10 16.0934 0 0
8:55 am 08:55 Sunny 41 4.8 26 -3.2 57 57 S 10 17 29.68 1005 10 16.0934 0 0
9:15 am 09:15 Sunny 42 5.3 27 -3 55 55 S 10 17 29.68 1005 10 16.0934 0 0
9:35 am 09:35 Sunny 42 5.7 27 -2.9 54 54 S 16 26 29.65 1004 10 16.0934 0 0
9:55 am 09:55 Sunny 43 6.2 27 -2.6 54 54 S 23 37 29.62 1003 10 16.0934 0 0
10:15 am 10:15 Sunny 44 6.7 28 -2.4 53 53 S 26 43 29.59 1002 10 16.0934 0 0
10:35 am 10:35 Sunny 45 7 28 -2.2 52 52 S 23 37 29.59 1002 10 16.0934 0 0
10:55 am 10:55 Sunny 46 7.5 29 -1.8 52 52 S 22 35 29.59 1002 10 16.0934 0 0
11:15 am 11:15 Sunny 47 8.1 29 -1.5 51 51 S 10 17 29.59 1002 10 16.0934 0 0
11:35 am 11:35 Sunny 47 8.5 30 -1.3 50 50 S 10 17 29.59 1002 10 16.0934 0 0
11:55 am 11:55 Sunny 49 9.2 31 -0.8 50 50 S 16 26 29.56 1001 10 16.0934 0 0
12:15 pm 12:15 Sunny 49 9.5 31 -0.8 49 49 S 16 26 29.56 1001 10 16.0934 0 0
12:35 pm 12:35 Sunny 50 10 31 -0.8 47 47 S 16 26 29.53 1000 10 16.0934 0 0
12:55 pm 12:55 Sunny 51 10.3 31 -0.6 47 47 SSW 12 19 29.53 1000 10 16.0934 0 0
1:15 pm 13:15 Sunny 51 10.8 31 -0.3 47 47 SSW 13 20 29.53 1000 10 16.0934 0 0
1:35 pm 13:35 Sunny 53 11.5 32 0 45 45 SSW 17 28 29.5 999 10 16.0934 0 0
1:55 pm 13:55 Sunny 54 12.1 32 0.2 44 44 S 16 26 29.44 997 10 16.0934 0 0
2:15 pm 14:15 Sunny 55 12.7 32 0.1 42 42 S 13 20 29.44 997 10 16.0934 0 0
2:35 pm 14:35 Sunny 55 13 32 0.1 41 41 SSW 13 20 29.44 997 10 16.0934 0 0
2:55 pm 14:55 Sunny 56 13.5 32 0 40 40 SSW 12 19 29.44 997 10 16.0934 0 0
3:15 pm 15:15 Sunny 57 14.1 32 0 38 38 SSW 9 15 29.44 997 10 16.0934 0 0
3:35 pm 15:35 Sunny 58 14.6 32 -0.1 37 37 SSW 3 6 29.44 997 10 16.0934 0 0
3:55 pm 15:55 Sunny 59 15 31 -0.4 35 35 Calm 29.41 996 10 16.0934 0 0
4:15 pm 16:15 Sunny 58 14.6 32 0 37 37 N 3 6 29.44 997 10 16.0934 0 0
4:35 pm 16:35 Sunny 55 12.7 37 3 52 52 N 8 13 29.47 998 10 16.0934 0 0
4:55 pm 16:55 Sunny 53 11.4 38 3.1 57 57 N 9 15 29.5 999 10 16.0934 0 0
5:15 pm 17:15 Sunny 51 10.5 36 2.4 58 58 N 10 17 29.5 999 10 16.0934 0 0
5:35 pm 17:35 Sunny 48 9 35 1.7 61 61 N 10 17 29.5 999 10 16.0934 0 0
5:55 pm 17:55 Sunny 46 7.8 34 1.2 63 63 N 14 22 29.53 1000 10 16.0934 0 0
6:15 pm 18:15 Sunny 44 6.9 32 0 62 62 NNE 21 33 29.53 1000 10 16.0934 0 0
6:35 pm 18:35 Clear 41 4.9 31 -0.6 68 68 NNE 22 35 29.59 1002 10 16.0934 0 0
6:55 pm 18:55 Clear 39 4 31 -0.6 72 72 NNE 20 31 29.59 1002 10 16.0934 0 0
7:15 pm 19:15 Clear 37 3 30 -1 75 75 NNE 21 33 29.59 1002 10 16.0934 0 0
7:35 pm 19:35 Clear 34 1.1 28 -2 80 80 NNE 25 41 29.65 1004 10 16.0934 0 0
7:55 pm 19:55 Clear 32 0 28 -2.5 83 83 NNE 24 39 29.65 1004 10 16.0934 0 0
8:15 pm 20:15 Mostly Cloudy 32 -0.2 27 -3 82 82 NNE 24 39 29.71 1006 10 16.0934 0 0
8:35 pm 20:35 Cloudy 31 -0.5 27 -3 83 83 NNE 25 41 29.71 1006 10 16.0934 0 0
8:55 pm 20:55 Cloudy 31 -0.8 26 -3.1 85 85 NNE 24 39 29.71 1006 10 16.0934 0 0
9:15 pm 21:15 Cloudy 30 -1 26 -3.2 85 85 NNE 23 37 29.74 1007 10 16.0934 0 0
9:35 pm 21:35 Cloudy 30 -1.2 26 -3.4 85 85 NNE 28 44 29.74 1007 10 16.0934 0 0
9:55 pm 21:55 Cloudy 29 -1.6 25 -3.8 85 85 NNE 22 35 29.74 1007 10 16.0934 0 0
10:15 pm 22:15 Cloudy 29 -1.8 25 -4 85 85 NNE 25 41 29.74 1007 10 16.0934 0 0
10:35 pm 22:35 Cloudy 28 -2.5 24 -4.4 87 87 NNE 25 41 29.74 1007 10 16.0934 0 0
10:55 pm 22:55 Cloudy 26 -3.2 23 -5 88 88 N 28 44 29.8 1009 10 16.0934 0 0
11:15 pm 23:15 Cloudy 25 -3.7 22 -5.3 89 89 N 21 33 29.8 1009 10 16.0934 0 0
11:35 pm 23:35 Cloudy 25 -4 22 -5.6 89 89 N 20 31 29.8 1009 10 16.0934 0 0
11:55 pm 23:55 Cloudy 25 -4 22 -5.7 88 88 N 22 35 29.83 1010 10 16.0934 0 0

Powered by AerisWeather